This demonstration page uses our WeatherBlox Daily Observations layout. Learn more.

Left ArrowRight Arrow

39.08367, -84.50855

Hourly Observations for May 4, 2022

Temp ( °F °C ) Dew Point ( °F °C ) Humidity (%) Winds ( mph kmh ) Pressure ( in mb ) Visibility ( mi km ) Precip ( " mm )
12:53 am 00:53 Mostly Cloudy 62 16.7 56 13.3 80 80 WNW 5 7 29.91 1013 10 16 0.00 0.00
1:53 am 01:53 Partly Cloudy 61 16.1 55 12.8 81 81 WNW 8 13 29.93 1014 10 16 0.00 0.00
2:53 am 02:53 Mostly Cloudy 59 15 55 12.8 87 87 W 8 13 29.92 1013 10 16 0.00 0.00
3:53 am 03:53 Cloudy 59 15 53 11.7 81 81 W 10 17 29.94 1014 10 16 0.00 0.00
4:40 am 04:40 Cloudy 58 14.4 53 11.7 84 84 WNW 7 11 29.96 1015 10 16 0.00 0.00
4:53 am 04:53 Cloudy 58 14.4 53 11.7 84 84 NW 10 17 29.96 1015 10 16 0.00 0.00
5:14 am 05:14 Cloudy 57 13.9 52 11.1 83 83 WNW 7 11 29.97 1015 10 16 0.00 0.00
5:53 am 05:53 Cloudy 56 13.3 51 10.6 84 84 NNW 8 13 29.98 1015 10 16 0.00 0.00
6:36 am 06:36 Cloudy 54 12.2 51 10.6 90 90 WNW 8 13 30.01 1016 7 11 0.00 0.00
6:53 am 06:53 Cloudy 54 12.2 50 10 87 87 WNW 9 15 30.02 1017 9 14 0.00 0.00
7:53 am 07:53 Cloudy 54 12.2 50 10 87 87 NNW 5 7 30.05 1018 10 16 0.00 0.00
8:17 am 08:17 Cloudy 54 12.2 50 10 87 87 NW 7 11 30.06 1018 10 16 0.00 0.00
8:53 am 08:53 Cloudy 54 12.2 51 10.6 90 90 NW 9 15 30.07 1018 10 16 0.00 0.00
9:53 am 09:53 Cloudy 55 12.8 51 10.6 87 87 NNW 12 19 30.09 1019 10 16 0.00 0.00
10:53 am 10:53 Cloudy 56 13.3 51 10.6 84 84 NW 8 13 30.10 1019 10 16 0.00 0.00
11:43 am 11:43 Cloudy 57 13.9 51 10.6 81 81 N 10 17 30.12 1020 10 16 0.00 0.00
11:53 am 11:53 Cloudy 56 13.3 51 10.6 84 84 N 10 17 30.12 1020 10 16 0.00 0.00
12:53 pm 12:53 Cloudy 58 14.4 51 10.6 78 78 NNW 6 9 30.14 1021 10 16 0.00 0.00
1:53 pm 13:53 Cloudy 59 15 50 10 72 72 N 10 17 30.13 1020 10 16 0.00 0.00
2:53 pm 14:53 Cloudy 60 15.6 50 10 70 70 N 8 13 30.12 1020 10 16 0.00 0.00
3:53 pm 15:53 Cloudy 61 16.1 51 10.6 70 70 NNE 7 11 30.12 1020 10 16 0.00 0.00
4:17 pm 16:17 Cloudy 61 16.1 51 10.6 70 70 N 6 9 30.12 1020 10 16 0.00 0.00
4:27 pm 16:27 Cloudy 61 16.1 51 10.6 70 70 N 6 9 30.12 1020 10 16 0.00 0.00
4:53 pm 16:53 Cloudy 61 16.1 51 10.6 70 70 N 6 9 30.12 1020 10 16 0.00 0.00
5:53 pm 17:53 Cloudy 60 15.6 50 10 70 70 N 5 7 30.14 1021 10 16 0.00 0.00
6:53 pm 18:53 Cloudy 60 15.6 50 10 70 70 NNE 6 9 30.13 1020 10 16 0.00 0.00
7:53 pm 19:53 Cloudy 60 15.6 51 10.6 72 72 N 8 13 30.14 1021 10 16 0.00 0.00
8:53 pm 20:53 Cloudy 59 15 51 10.6 75 75 N 10 17 30.16 1022 10 16 0.00 0.00
9:53 pm 21:53 Cloudy 58 14.4 51 10.6 78 78 N 9 15 30.18 1022 10 16 0.00 0.00
10:01 pm 22:01 Cloudy 58 14.4 51 10.6 78 78 N 8 13 30.18 1022 10 16 0.00 0.00
10:08 pm 22:08 Cloudy 58 14.4 51 10.6 78 78 N 9 15 30.19 1022 10 16 0.00 0.00
10:53 pm 22:53 Cloudy 57 13.9 51 10.6 81 81 N 10 17 30.19 1022 9 14 0.00 0.00
11:00 pm 23:00 Cloudy 57 13.9 51 10.6 81 81 NNE 10 17 30.19 1022 9 14 0.00 0.00
11:53 pm 23:53 Cloudy 56 13.3 52 11.1 87 87 ENE 7 11 30.17 1022 9 14 0.00 0.00

Powered by AerisWeather